This is the latest recevied weather packets stored in our database for station/object OE3TEC-15. If no packets are shown the sender has not sent any weather packets the latest 10 day(s).
| Time | Temp. | Humidity | Pressure | Rain* | Wind** | Luminosity | Snow |
|---|---|---|---|---|---|---|---|
| 1777853234 | 11.67° C | 63% | 1014.9 hPa | 0 mm | - | 0 W/m² | - |
| 1777852629 | 12.22° C | 61% | 1014.8 hPa | 0 mm | - | 0 W/m² | - |
| 1777852022 | 12.78° C | 60% | 1014.8 hPa | 0 mm | - | 0 W/m² | - |
| 1777851414 | 12.78° C | 59% | 1014.8 hPa | 0 mm | - | 0 W/m² | - |
| 1777850807 | 13.89° C | 55% | 1014.8 hPa | 0 mm | - | 0 W/m² | - |
| 1777850199 | 14.44° C | 54% | 1014.8 hPa | 0 mm | - | 0 W/m² | - |
| 1777849592 | 14.44° C | 53% | 1014.8 hPa | 0 mm | - | 0 W/m² | - |
| 1777848985 | 15° C | 52% | 1014.7 hPa | 0 mm | - | 0 W/m² | - |
| 1777848377 | 15° C | 51% | 1014.8 hPa | 0 mm | - | 0 W/m² | - |
| 1777847770 | 15° C | 52% | 1014.7 hPa | 0 mm | - | 0 W/m² | - |
| 1777847162 | 15° C | 52% | 1014.6 hPa | 0 mm | - | 0 W/m² | - |
| 1777846556 | 15° C | 52% | 1014.8 hPa | 0 mm | - | 0 W/m² | - |
| 1777845950 | 15° C | 52% | 1014.7 hPa | 0 mm | - | 0 W/m² | - |
| 1777845342 | 15° C | 52% | 1014.9 hPa | 0 mm | - | 0 W/m² | - |
| 1777844735 | 15° C | 52% | 1015 hPa | 0 mm | - | 0 W/m² | - |
| 1777844127 | 15° C | 52% | 1015.1 hPa | 0 mm | - | 0 W/m² | - |
| 1777843519 | 15.56° C | 52% | 1015.2 hPa | 0 mm | - | 0 W/m² | - |
| 1777842912 | 15.56° C | 50% | 1015 hPa | 0 mm | - | 0 W/m² | - |
| 1777842306 | 15.56° C | 50% | 1015.2 hPa | 0 mm | - | 0 W/m² | - |
| 1777841698 | 15.56° C | 49% | 1015.2 hPa | 0 mm | - | 0 W/m² | - |
| 1777841091 | 16.11° C | 49% | 1015.3 hPa | 0 mm | - | 0 W/m² | - |
| 1777840485 | 16.67° C | 48% | 1015.4 hPa | 0 mm | - | 0 W/m² | - |
| 1777839877 | 16.67° C | 46% | 1015.4 hPa | 0 mm | - | 0 W/m² | - |
| 1777839270 | 17.22° C | 46% | 1015.5 hPa | 0 mm | - | 0 W/m² | - |
| 1777838663 | 17.22° C | 45% | 1015.6 hPa | 0 mm | - | 0 W/m² | - |
* Rain latest hour (hover to see other rain measurements)
** Current wind speed in m/s (hover to see current wind gust speed)